Location: Artesia
(33.8658°N, 118.0831°W)
Time: 15:33:23
(UTC+00:00)

Cosmos 1515 - Visible Passes

Search period start: 08 September 2024 00:00
Search period end: 18 September 2024 00:00
Orbit: 437 x 443 km, 82.5° (Epoch: 07 September)

Date Brightness Start Highest point End Pass type
(mag) Time Alt. Az. Time Alt. Az. Time Alt. Az.
08 Sep 6.5 12:32:07 10° SE 12:34:32 18° E 12:36:58 10° NE visible
10 Sep 4.0 12:47:49 10° S 12:51:08 59° E 12:54:27 10° NNE visible
11 Sep 6.2 12:09:58 10° SE 12:12:28 20° E 12:15:00 10° NE visible
12 Sep 3.8 13:04:19 10° SSW 13:07:30 39° W 13:10:41 10° N visible
13 Sep 3.8 12:25:12 10° S 12:28:32 62° E 12:31:52 10° NNE visible
14 Sep 6.0 11:47:03 10° SE 11:49:37 20° E 11:52:11 10° NE visible
15 Sep 3.9 12:41:12 10° SSW 12:44:21 37° W 12:47:32 10° N visible
16 Sep 3.7 12:03:21 25° S 12:05:08 64° E 12:08:29 10° NNE visible
17 Sep 5.8 11:25:25 20° ESE 11:25:57 21° E 11:28:33 10° NE visible
17 Sep 5.2 12:58:53 12° W 12:59:58 14° WNW 13:01:45 10° NW visible
